Regional Weather Roundup
Issued by NWS

Home | Current Version | Previous Version | Text Only | Print | Product List | Glossary Off
Versions: 1 2 3 4 5 6 7 8 9 10 11 12 13 14 15 16 17 18 19 20 21 22 23 24 25 26 27 28

000
ASUS45 KSLC 101310
RWRUT

UTAH REGIONAL WEATHER ROUNDUP
NATIONAL WEATHER SERVICE SALT LAKE CITY UT
600 AM MST SUN DEC 10 2017

UTZ001>011-023>025-101400-

NORTHERN UTAH

CITY           SKY/WX    TMP DP  RH WIND       PRES   REMARKS
BRIGHAM CITY   PTCLDY    17  13  84 CALM      30.65S
HILL AFB       PTCLDY    20  13  72 E15       30.62S WCI   7
LOGAN          CLOUDY    20  14  77 CALM      30.66F
OGDEN          PTCLDY    21  13  71 S7        30.62S WCI  12
SALT LAKE CITY PTCLDY    23  18  81 SE6       30.64S WCI  16
TOOELE VALLEY  PTCLDY    16  12  86 S8        30.65S WCI   5
WENDOVER       MOCLDY    12  10  92 NE3       30.65S
HEBER CITY       N/A      9   3  78 CALM      30.60S
WEST JORDAN    PTCLDY    20  17  87 CALM      30.64R

$$

UTZ011>015-024>027-101400-

CENTRAL/NORTHEAST UTAH

CITY           SKY/WX    TMP DP  RH WIND       PRES   REMARKS
PROVO AIRPORT  PTCLDY    14  11  87 NE5       30.65S WCI   6
MOAB/CANYONLAN MOCLDY    14   3  61 CALM      30.57R
DELTA          CLOUDY    12   9  85 MISG      30.63R
PRICE          PTCLDY    17  -3  41 NE5       30.53S WCI  10
RICHFIELD      CLEAR      7   3  85 CALM      30.64R
ROOSEVELT      CLOUDY    10   3  72 W3        30.62S
VERNAL         CLOUDY     9   3  77 W3        30.60R

$$

UTZ013>016-019>022-027-101400-

SOUTHERN UTAH

CITY           SKY/WX    TMP DP  RH WIND       PRES   REMARKS
BRYCE CANYON   PTCLDY     9  -8  46 W13       30.57F WCI  -7
CEDAR CITY     MOCLDY    11   5  77 NE5       30.56R WCI   3
MILFORD        CLOUDY    10   7  87 CALM      30.61S
ST GEORGE      MOSUNNY   30   7  37 SE3       30.51S
HANKSVILLE     CLOUDY     9  -8  47 CALM      30.61S
KANAB          CLEAR     25  -8  24 NE7       30.54S WCI  17
BLANDING         N/A     26  -3  28 NE5       30.59S WCI  20

$$

REGIONAL REPORTS     COLORADO/ARIZONA

CITY           SKY/WX    TMP DP  RH WIND       PRES   REMARKS
CRAIG, CO      CLOUDY     2  -3  80 W3        30.58S
GRAND JUNCTION CLOUDY    19   5  54 E6        30.58S WCI  11
RIFLE, CO      CLOUDY    12   4  70 SE3       30.61S
MONTROSE, CO   CLOUDY    12   0  58 SE6       30.62R WCI   3
CORTEZ, CO     CLOUDY     8  -6  52 NE8       30.54S WCI  -4
COLORADO CITY    N/A     12  -4  48 E3        30.51F
PAGE, AZ       CLOUDY    27  11  51 SW3       30.54S
GRAND CANYON   PTCLDY    26  -7  23 E6        30.50S WCI  19
KINGMAN, AZ    PTCLDY    32   4  30 E10       30.41R WCI  24
FLAGSTAFF, AZ  PTCLDY    16   0  49 E8        30.49R WCI   5

$$

REGIONAL REPORTS    NEVADA/IDAHO/WYOMING

CITY           SKY/WX    TMP DP  RH WIND       PRES   REMARKS
LAS VEGAS, NV  CLEAR     41  10  28 SW5       30.41R
ELY, NY        MOCLDY     6  -5  60 S13       30.59S WCI -10
ELKO, NV       MOCLDY    11   7  84 E5        30.60S WCI   3
POCATELLO, ID  FOG        9   4  80 CALM      30.65F VSB 1
BURLEY, ID     FOG       17  14  88 NE5       30.63F VSB 1/2 WCI  10
FORT BRIDGER,    N/A     27  -1  29 W15       30.56F WCI  16
EVANSTON, WY   CLOUDY    23   6  48 CALM      30.57S
ROCK SPRINGS,  CLOUDY    25   4  40 SW12      30.51S WCI  14

$$




USA.gov is the U.S. government's official web portal to all federal, state and local government web resources and services.